GW4049 Weather Reports


time (UTC)temp
C
wind
direction
speed
KPH
gust
KPH
rain 1hr
cm
rain 24hr
cm
rain mn
cm
humidity
%
barometer
mb
20260509234840 12 356 3.2 4.8 0.00 0.00 0.00 34 1024.0
20260509234337 12 87 3.2 4.8 0.00 0.00 0.00 32 1023.6
20260509233836 13 251 1.6 6.4 0.00 0.00 0.00 34 1023.6
20260509233333 13 263 0.0 4.8 0.00 0.00 0.00 32 1023.7
20260509232828 13 333 4.8 14.5 0.00 0.00 0.00 34 1023.6
20260509232326 13 36 3.2 11.3 0.00 0.00 0.00 34 1023.6
20260509231822 13 309 3.2 9.7 0.00 0.00 0.00 32 1023.5
20260509231319 13 8 3.2 11.3 0.00 0.00 0.00 32 1023.7
20260509230817 13 312 4.8 11.3 0.00 0.00 0.00 29 1023.7
20260509230314 12 32 1.6 9.7 0.00 0.00 0.00 34 1023.6
20260509225808 12 284 1.6 9.7 0.00 0.00 0.00 34 1023.5
20260509225306 12 110 4.8 9.7 0.00 0.00 0.00 33 1023.3
20260509224801 12 348 6.4 11.3 0.00 0.00 0.00 34 1023.5
20260509224258 12 262 0.0 3.2 0.00 0.00 0.00 34 1023.3
20260509223755 13 249 4.8 11.3 0.00 0.00 0.00 34 1024.0
20260509223252 13 263 0.0 0.0 0.00 0.00 0.00 35 1023.7
20260509222749 12 266 1.6 6.4 0.00 0.00 0.00 35 1023.9
20260509222244 13 35 8.0 11.3 0.00 0.00 0.00 34 1023.3
20260509221740 13 296 3.2 4.8 0.00 0.00 0.00 33 1023.5
20260509221237 14 335 3.2 17.7 0.00 0.00 0.00 32 1023.5
20260509220732 14 31 6.4 14.5 0.00 0.00 0.00 28 1023.6
20260509220229 16 290 9.7 14.5 0.00 0.00 0.00 21 1023.5
20260509215725 14 62 6.4 22.5 0.00 0.00 0.00 25 1023.6
20260509215221 13 283 8.0 12.9 0.00 0.00 0.00 26 1023.3
20260509214719 13 273 1.6 3.2 0.00 0.00 0.00 25 1023.6
20260509214215 13 291 3.2 3.2 0.00 0.00 0.00 24 1023.6
20260509213713 13 260 3.2 9.7 0.00 0.00 0.00 26 1023.6
20260509213208 13 266 9.7 16.1 0.00 0.00 0.00 23 1024.0
20260509212706 15 280 9.7 16.1 0.00 0.00 0.00 23 1023.6
20260509212203 15 13 9.7 17.7 0.00 0.00 0.00 24 1023.6
20260509211658 16 347 4.8 11.3 0.00 0.00 0.00 23 1023.6
20260509211155 15 33 6.4 20.9 0.00 0.00 0.00 23 1023.6
20260509210652 15 247 4.8 12.9 0.00 0.00 0.00 25 1023.6
20260509210144 14 299 11.3 16.1 0.00 0.00 0.00 25 1023.9
20260509205639 14 284 9.7 22.5 0.00 0.00 0.00 24 1023.7
20260509205138 15 255 9.7 24.1 0.00 0.00 0.00 25 1023.6
20260509204635 15 291 6.4 17.7 0.00 0.00 0.00 24 1023.7
20260509204131 15 310 11.3 16.1 0.00 0.00 0.00 25 1023.5
20260509203627 15 327 9.7 27.4 0.00 0.00 0.00 24 1023.6
20260509203120 15 246 9.7 12.9 0.00 0.00 0.00 24 1023.5
20260509202619 15 333 12.9 17.7 0.00 0.00 0.00 25 1023.7
20260509202116 16 303 4.8 9.7 0.00 0.00 0.00 26 1023.5
20260509201615 15 347 9.7 14.5 0.00 0.00 0.00 24 1023.9
20260509201114 15 284 9.7 17.7 0.00 0.00 0.00 26 1023.9
20260509200615 15 258 6.4 16.1 0.00 0.00 0.00 25 1023.9
20260509200105 15 276 8.0 22.5 0.00 0.00 0.00 24 1023.6
20260509195601 15 46 3.2 11.3 0.00 0.00 0.00 25 1023.5
20260509195055 15 8 9.7 14.5 0.00 0.00 0.00 25 1023.9
20260509194555 15 210 14.5 17.7 0.00 0.00 0.00 24 1023.9
20260509194053 15 254 9.7 17.7 0.00 0.00 0.00 23 1023.9
20260509193548 15 264 9.7 14.5 0.00 0.00 0.00 24 1023.9
20260509193044 15 329 17.7 20.9 0.00 0.00 0.00 23 1023.7
20260509192541 14 276 20.9 25.7 0.00 0.00 0.00 24 1024.1
20260509192036 15 195 8.0 11.3 0.00 0.00 0.00 23 1023.9
20260509191531 14 306 8.0 22.5 0.00 0.00 0.00 29 1024.0
20260509191027 14 277 9.7 29.0 0.00 0.00 0.00 25 1024.0
20260509190525 14 20 9.7 17.7 0.00 0.00 0.00 26 1023.9
20260509190023 15 279 17.7 22.5 0.00 0.00 0.00 25 1024.1
20260509185520 15 296 11.3 25.7 0.00 0.00 0.00 26 1024.0
20260509185016 14 355 6.4 20.9 0.00 0.00 0.00 24 1023.9
20260509184514 15 298 14.5 22.5 0.00 0.00 0.00 24 1023.6
20260509184010 13 287 11.3 14.5 0.00 0.00 0.00 26 1024.0
20260509183505 13 275 4.8 12.9 0.00 0.00 0.00 26 1023.7
20260509183001 13 339 11.3 22.5 0.00 0.00 0.00 25 1024.3
20260509182458 13 340 9.7 27.4 0.00 0.00 0.00 26 1024.3
20260509181955 13 262 4.8 25.7 0.00 0.00 0.00 28 1024.0
20260509181454 13 265 20.9 25.7 0.00 0.00 0.00 26 1024.1
20260509180951 13 287 16.1 24.1 0.00 0.00 0.00 27 1024.1
20260509180446 13 247 4.8 24.1 0.00 0.00 0.00 29 1024.1
20260509175943 13 325 9.7 25.7 0.00 0.00 0.00 28 1024.0
20260509175439 12 266 6.4 20.9 0.00 0.00 0.00 28 1024.1
20260509174935 13 237 11.3 16.1 0.00 0.00 0.00 28 1024.3
20260509174432 13 338 8.0 12.9 0.00 0.00 0.00 29 1023.9
20260509173927 12 243 4.8 14.5 0.00 0.00 0.00 29 1024.1
20260509173426 12 262 8.0 16.1 0.00 0.00 0.00 30 1024.1
20260509172923 12 295 6.4 12.9 0.00 0.00 0.00 31 1024.0
20260509172420 12 258 1.6 20.9 0.00 0.00 0.00 29 1024.1
20260509171916 12 266 9.7 24.1 0.00 0.00 0.00 28 1024.0
20260509171412 13 324 9.7 17.7 0.00 0.00 0.00 30 1024.0
20260509170908 13 257 4.8 16.1 0.00 0.00 0.00 29 1024.1
20260509170404 12 24 4.8 22.5 0.00 0.00 0.00 28 1023.9
20260509165900 12 256 8.0 17.7 0.00 0.00 0.00 28 1023.9
20260509165354 12 330 14.5 25.7 0.00 0.00 0.00 28 1024.3
20260509164850 12 260 4.8 16.1 0.00 0.00 0.00 29 1024.0
20260509164346 12 260 9.7 25.7 0.00 0.00 0.00 28 1023.9
20260509163843 11 293 12.9 29.0 0.00 0.00 0.00 30 1023.9
20260509163339 12 318 16.1 33.8 0.00 0.00 0.00 28 1023.7
20260509162839 12 261 8.0 17.7 0.00 0.00 0.00 29 1024.0
20260509162332 11 266 12.9 27.4 0.00 0.00 0.00 29 1023.9
20260509161829 12 29 11.3 20.9 0.00 0.00 0.00 32 1023.9
20260509161325 11 235 11.3 22.5 0.00 0.00 0.00 29 1023.9
20260509160821 11 290 9.7 16.1 0.00 0.00 0.00 30 1023.9
20260509160316 12 292 8.0 17.7 0.00 0.00 0.00 32 1023.9
20260509155812 11 236 6.4 37.0 0.00 0.00 0.00 32 1023.6
20260509155308 11 290 6.4 6.4 0.00 0.00 0.00 34 1023.7
20260509154804 12 278 6.4 12.9 0.00 0.00 0.00 34 1023.7
20260509154301 12 311 4.8 4.8 0.00 0.00 0.00 33 1023.7
20260509153758 11 267 1.6 3.2 0.00 0.00 0.00 34 1023.9
20260509153254 10 350 14.5 17.7 0.00 0.00 0.00 35 1023.9
20260509152751 11 334 11.3 12.9 0.00 0.00 0.00 37 1023.6
20260509152247 11 229 1.6 1.6 0.00 0.00 0.00 31 1023.6
20260509151745 11 98 4.8 9.7 0.00 0.00 0.00 34 1023.9
20260509151241 10 265 0.0 6.4 0.00 0.00 0.00 36 1023.6
20260509150740 10 271 3.2 11.3 0.00 0.00 0.00 34 1023.5
20260509150238 11 355 4.8 11.3 0.00 0.00 0.00 37 1023.6
20260509145735 11 319 4.8 6.4 0.00 0.00 0.00 35 1023.6
20260509145234 10 62 4.8 4.8 0.00 0.00 0.00 32 1023.9
20260509144732 10 241 0.0 3.2 0.00 0.00 0.00 34 1023.9
20260509144228 10 331 4.8 9.7 0.00 0.00 0.00 38 1023.9
20260509143725 9 272 3.2 4.8 0.00 0.00 0.00 35 1024.0
20260509143222 9 232 6.4 6.4 0.00 0.00 0.00 34 1024.1
20260509142718 8 220 0.0 4.8 0.00 0.00 0.00 40 1024.0
20260509142215 8 295 1.6 3.2 0.00 0.00 0.00 39 1023.9
20260509141710 8 258 0.0 3.2 0.00 0.00 0.00 40 1023.6
20260509141208 8 282 3.2 4.8 0.00 0.00 0.00 42 1023.7
20260509140704 8 302 3.2 4.8 0.00 0.00 0.00 41 1023.9
20260509140202 7 264 0.0 1.6 0.00 0.00 0.00 42 1024.0
20260509135659 6 350 0.0 4.8 0.00 0.00 0.00 46 1024.1
20260509135157 5 278 0.0 0.0 0.00 0.00 0.00 47 1024.1
20260509134653 2 240 0.0 3.2 0.00 0.00 0.00 60 1023.9
20260509134151 3 235 1.6 3.2 0.00 0.00 0.00 60 1024.1
20260509133648 3 233 0.0 0.0 0.00 0.00 0.00 63 1023.9
20260509133145 3 118 4.8 4.8 0.00 0.00 0.00 53 1023.9
20260509132643 3 219 3.2 3.2 0.00 0.00 0.00 57 1023.9
20260509132141 3 213 3.2 4.8 0.00 0.00 0.00 60 1023.6
20260509131637 3 210 3.2 4.8 0.00 0.00 0.00 58 1023.6
20260509131134 4 206 3.2 4.8 0.00 0.00 0.00 55 1023.3
20260509130630 5 228 3.2 4.8 0.00 0.00 0.00 52 1023.6
20260509130126 5 244 3.2 6.4 0.00 0.00 0.00 51 1023.5
20260509125623 5 257 0.0 3.2 0.00 0.00 0.00 50 1023.3
20260509125120 6 237 3.2 6.4 0.00 0.00 0.00 48 1023.1
20260509124616 6 248 1.6 3.2 0.00 0.00 0.00 44 1023.1
20260509124114 6 231 6.4 6.4 0.00 0.00 0.00 45 1023.2
20260509123612 6 246 9.7 12.9 0.00 0.00 0.00 44 1022.8
20260509123108 6 270 9.7 12.9 0.00 0.00 0.00 44 1022.8
20260509122604 6 269 11.3 25.7 0.00 0.00 0.00 43 1022.7
20260509122102 6 261 9.7 25.7 0.00 0.00 0.00 44 1022.7
20260509121558 6 249 12.9 22.5 0.00 0.00 0.00 43 1022.3
20260509121055 6 259 24.1 25.7 0.00 0.00 0.00 45 1022.4
20260509120553 6 250 20.9 29.0 0.00 0.00 0.00 45 1022.3
20260509120052 6 317 11.3 14.5 0.00 0.00 0.00 46 1022.4
20260509115548 6 270 14.5 22.5 0.00 0.00 0.00 45 1022.5
20260509115046 6 289 11.3 16.1 0.00 0.00 0.00 47 1022.4
20260509114544 7 252 11.3 14.5 0.00 0.00 0.00 45 1022.7
20260509114042 6 286 4.8 20.9 0.00 0.00 0.00 47 1022.7
20260509113540 6 260 6.4 14.5 0.00 0.00 0.00 48 1022.7
20260509113038 6 206 1.6 22.5 0.00 0.00 0.00 48 1022.7
20260509112534 6 215 3.2 16.1 0.00 0.00 0.00 47 1022.7
20260509112031 7 258 9.7 20.9 0.00 0.00 0.00 47 1022.5
20260509111528 7 253 8.0 20.9 0.00 0.00 0.00 47 1022.7
20260509111025 7 300 9.7 25.7 0.00 0.00 0.00 47 1022.8
20260509110522 7 249 16.1 22.5 0.00 0.00 0.00 47 1022.5
20260509110019 6 247 11.3 17.7 0.00 0.00 0.00 47 1022.5
20260509105517 7 259 9.7 17.7 0.00 0.00 0.00 47 1022.4
20260509105015 7 277 4.8 12.9 0.00 0.00 0.00 47 1022.7
20260509104511 7 225 8.0 22.5 0.00 0.00 0.00 47 1022.5
20260509104008 7 329 6.4 14.5 0.00 0.00 0.00 48 1022.7
20260509103506 7 231 3.2 14.5 0.00 0.00 0.00 48 1022.5
20260509103004 7 259 3.2 14.5 0.00 0.00 0.00 48 1022.7
20260509102502 7 299 9.7 16.1 0.00 0.00 0.00 48 1022.5
20260509101958 7 269 6.4 17.7 0.00 0.00 0.00 47 1022.5
20260509101454 7 242 6.4 17.7 0.00 0.00 0.00 48 1022.5
20260509100951 7 262 4.8 12.9 0.00 0.00 0.00 48 1022.5
20260509100448 7 238 8.0 17.7 0.00 0.00 0.00 48 1022.7
20260509095945 7 231 8.0 9.7 0.00 0.00 0.00 48 1022.4
20260509095442 7 246 6.4 9.7 0.00 0.00 0.00 48 1022.5
20260509094939 7 291 3.2 12.9 0.00 0.00 0.00 47 1022.7
20260509094435 7 264 4.8 20.9 0.00 0.00 0.00 47 1022.7
20260509093933 7 294 14.5 20.9 0.00 0.00 0.00 47 1022.5
20260509093430 7 289 6.4 27.4 0.00 0.00 0.00 47 1022.4
20260509092928 7 283 6.4 11.3 0.00 0.00 0.00 47 1022.5
20260509092426 7 244 9.7 12.9 0.00 0.00 0.00 47 1022.5
20260509091925 7 230 4.8 14.5 0.00 0.00 0.00 47 1022.7
20260509091421 7 266 6.4 17.7 0.00 0.00 0.00 47 1022.5
20260509090918 7 293 3.2 6.4 0.00 0.00 0.00 47 1022.4
20260509090415 7 257 4.8 17.7 0.00 0.00 0.00 46 1022.3
20260509085913 7 211 6.4 11.3 0.00 0.00 0.00 47 1022.4
20260509085410 7 233 6.4 11.3 0.00 0.00 0.00 47 1022.5
20260509084906 7 256 8.0 17.7 0.00 0.00 0.00 46 1022.3
20260509084403 7 263 4.8 12.9 0.00 0.00 0.00 47 1022.3
20260509083901 7 242 6.4 12.9 0.00 0.00 0.00 47 1022.5
20260509083357 7 256 6.4 16.1 0.00 0.00 0.00 46 1022.7
20260509082854 7 251 11.3 14.5 0.00 0.00 0.00 47 1022.5
20260509082351 7 211 6.4 12.9 0.00 0.00 0.00 46 1022.4
20260509081848 7 262 4.8 11.3 0.00 0.00 0.00 46 1022.5
20260509081345 8 247 3.2 11.3 0.00 0.00 0.00 47 1022.5
20260509080843 8 267 3.2 11.3 0.00 0.00 0.00 47 1022.5
20260509080341 8 225 3.2 4.8 0.00 0.00 0.00 46 1022.4
20260509075839 7 244 8.0 12.9 0.00 0.00 0.00 45 1022.5
20260509075335 8 256 1.6 14.5 0.00 0.00 0.00 45 1022.7
20260509074832 8 266 3.2 12.9 0.00 0.00 0.00 44 1022.8
20260509074330 8 261 3.2 12.9 0.00 0.00 0.00 44 1022.8
20260509073826 8 311 4.8 24.1 0.00 0.00 0.00 43 1022.8
20260509073323 8 265 8.0 20.9 0.00 0.00 0.00 43 1022.9
20260509072820 9 241 6.4 9.7 0.00 0.00 0.00 43 1022.7
20260509072316 8 272 12.9 17.7 0.00 0.00 0.00 42 1022.8
20260509071813 8 294 4.8 14.5 0.00 0.00 0.00 42 1022.8
20260509071310 8 314 8.0 11.3 0.00 0.00 0.00 44 1022.8
20260509070807 7 287 8.0 16.1 0.00 0.00 0.00 45 1022.7
20260509070304 6 235 1.6 6.4 0.00 0.00 0.00 51 1022.4
20260509065800 6 215 4.8 4.8 0.00 0.00 0.00 54 1022.5
20260509065256 6 219 6.4 11.3 0.00 0.00 0.00 50 1022.7
20260509064752 6 219 4.8 6.4 0.00 0.00 0.00 60 1022.9
20260509064250 6 216 3.2 9.7 0.00 0.00 0.00 56 1022.5
20260509063747 6 206 4.8 6.4 0.00 0.00 0.00 55 1022.8
20260509063243 6 207 6.4 6.4 0.00 0.00 0.00 61 1022.9
20260509062741 6 218 6.4 6.4 0.00 0.00 0.00 59 1023.1
20260509062238 6 209 4.8 4.8 0.00 0.00 0.00 58 1022.9
20260509061735 6 214 4.8 6.4 0.00 0.00 0.00 54 1023.3
20260509061233 6 211 6.4 9.7 0.00 0.00 0.00 54 1023.1
20260509060730 7 206 8.0 9.7 0.00 0.00 0.00 52 1022.9
20260509060226 7 203 4.8 6.4 0.00 0.00 0.00 52 1022.9
20260509055722 7 188 4.8 6.4 0.00 0.00 0.00 52 1022.7
20260509055218 6 213 4.8 9.7 0.00 0.00 0.00 56 1023.1
20260509054714 6 199 4.8 4.8 0.00 0.00 0.00 59 1023.2
20260509054212 6 226 8.0 11.3 0.00 0.00 0.00 52 1023.3
20260509053710 6 191 4.8 6.4 0.00 0.00 0.00 55 1023.1
20260509053207 6 191 6.4 6.4 0.00 0.00 0.00 55 1023.2
20260509052705 6 212 6.4 6.4 0.00 0.00 0.00 54 1023.2
20260509052202 6 190 4.8 4.8 0.00 0.00 0.00 54 1023.3
20260509051659 6 222 4.8 6.4 0.00 0.00 0.00 56 1023.6
20260509051157 6 196 3.2 6.4 0.00 0.00 0.00 54 1023.6
20260509050654 6 244 4.8 6.4 0.00 0.00 0.00 53 1023.9
20260509050150 7 209 3.2 4.8 0.00 0.00 0.00 52 1023.7
20260509045648 7 223 4.8 9.7 0.00 0.00 0.00 54 1023.7
20260509045144 7 219 6.4 6.4 0.00 0.00 0.00 53 1023.6
20260509044641 7 220 6.4 9.7 0.00 0.00 0.00 50 1023.7
20260509044139 6 244 6.4 11.3 0.00 0.00 0.00 55 1023.7
20260509043636 5 194 6.4 6.4 0.00 0.00 0.00 70 1023.9
20260509043131 5 212 4.8 4.8 0.00 0.00 0.00 73 1024.0
20260509042628 5 210 3.2 4.8 0.00 0.00 0.00 72 1024.3
20260509042124 5 218 3.2 4.8 0.00 0.00 0.00 73 1024.3
20260509041621 5 210 4.8 4.8 0.00 0.00 0.00 71 1024.3
20260509041118 6 215 3.2 4.8 0.00 0.00 0.00 70 1024.1
20260509040617 6 212 3.2 4.8 0.00 0.00 0.00 69 1024.1
20260509040113 6 235 0.0 1.6 0.00 0.00 0.00 68 1024.1
20260509035610 7 262 3.2 4.8 0.00 0.00 0.00 65 1024.0
20260509035107 6 237 1.6 4.8 0.00 0.00 0.00 70 1024.3
20260509034605 7 238 1.6 9.7 0.00 0.00 0.00 70 1024.3
20260509034101 6 227 6.4 12.9 0.00 0.00 0.00 70 1024.5
20260509033558 7 227 3.2 4.8 0.00 0.00 0.00 71 1024.0
20260509033055 6 205 6.4 11.3 0.00 0.00 0.00 72 1024.4
20260509032553 6 238 3.2 4.8 0.00 0.00 0.00 73 1024.3
20260509032049 6 249 4.8 12.9 0.00 0.00 0.00 72 1024.1
20260509031547 6 178 11.3 12.9 0.00 0.00 0.00 71 1024.0
20260509031044 6 190 3.2 9.7 0.00 0.00 0.00 73 1024.6
20260509030543 6 230 4.8 6.4 0.00 0.00 0.00 72 1024.3
20260509030039 6 221 6.4 9.7 0.00 0.00 0.00 72 1024.3
20260509025535 7 221 3.2 9.7 0.00 0.00 0.00 71 1024.3
20260509025031 7 236 3.2 4.8 0.00 0.00 0.00 72 1023.7
20260509024527 6 218 4.8 9.7 0.00 0.00 0.00 72 1023.9
20260509024023 6 188 4.8 6.4 0.00 0.00 0.00 74 1023.7
20260509023521 6 227 3.2 4.8 0.00 0.00 0.00 74 1023.6
20260509023018 7 250 3.2 4.8 0.00 0.00 0.00 70 1023.7
20260509022514 7 230 6.4 9.7 0.00 0.00 0.00 69 1023.5
20260509022012 6 221 3.2 3.2 0.00 0.00 0.00 73 1023.5
20260509021509 6 238 4.8 6.4 0.00 0.00 0.00 72 1023.5
20260509021006 7 194 4.8 11.3 0.00 0.00 0.00 70 1023.5
20260509020504 7 212 8.0 12.9 0.00 0.00 0.00 68 1023.7
20260509020000 7 193 6.4 11.3 0.00 0.00 0.00 69 1023.6
20260509015459 7 185 6.4 9.7 0.00 0.00 0.00 70 1023.6
20260509014956 7 225 4.8 9.7 0.00 0.00 0.00 70 1023.6
20260509014453 7 214 8.0 9.7 0.00 0.00 0.00 70 1023.5
20260509013949 7 240 1.6 3.2 0.00 0.00 0.00 70 1023.7
20260509013446 7 209 6.4 9.7 0.00 0.00 0.00 72 1023.2
20260509012936 7 223 0.0 0.0 0.00 0.00 0.00 70 1023.3
20260509012433 8 225 3.2 4.8 0.00 0.00 0.00 67 1023.5
20260509011930 8 240 0.0 3.2 0.00 0.00 0.00 68 1023.3
20260509011427 8 238 1.6 3.2 0.00 0.00 0.00 69 1023.1
20260509010925 8 253 3.2 9.7 0.00 0.00 0.00 68 1023.3
20260509010422 8 142 4.8 4.8 0.00 0.00 0.00 67 1023.2
20260509005919 8 209 3.2 4.8 0.00 0.00 0.00 66 1023.5
20260509005417 8 228 0.0 4.8 0.00 0.00 0.00 67 1023.3
20260509004917 8 211 3.2 9.7 0.00 0.00 0.00 67 1022.9
20260509004414 8 167 3.2 6.4 0.00 0.00 0.00 66 1023.2
20260509003912 8 218 3.2 6.4 0.00 0.00 0.00 68 1023.1
20260509003409 8 249 1.6 1.6 0.00 0.00 0.00 66 1023.2
20260509002906 8 191 3.2 4.8 0.00 0.00 0.00 66 1023.2
20260509002404 8 254 0.0 1.6 0.00 0.00 0.00 65 1023.1
20260509001901 9 88 3.2 6.4 0.00 0.00 0.00 65 1023.1
20260509001356 8 295 1.6 4.8 0.00 0.00 0.00 64 1023.3
20260509000854 8 187 4.8 4.8 0.00 0.00 0.00 65 1023.3
20260509000352 8 176 4.8 4.8 0.00 0.00 0.00 65 1023.3
20260508235848 9 242 3.2 4.8 0.00 0.00 0.00 65 1023.5
20260508235345 9 320 1.6 3.2 0.00 0.00 0.00 63 1023.5